Location: Boiro
(42.6475°N, 8.8834°W)
Time: 08:42:39
(UTC+02:00)

NANOSAT C BR1 - Pass Details

Date: 22 August 2022
Orbit: 582 x 600 km, 98.0° (Epoch: 25 September)

Event Time Altitude Azimuth Distance (km) Brightness Sun altitude
Rises 04:18:17 0° 21° (NNE) 2,832 ? -30.9°
Reaches altitude 10° 04:20:36 10° 30° (NNE) 1,923 ? -30.7°
Enters shadow 04:23:08 29° 58° (ENE) 1,093 ? -30.5°
